• In Deutschland
  • Länderverzeichnis
  • Für 7 Tage
  • Wassertemperatur
  • Satellitenkarten
  • Wetterkarte
  • Widgets
  • user-avatar
    Anmelden

    Stündliche Wetter Kozani

    Heute, 22 Februar, Donnerstag

    Zeit Temperatur Niederschläge Wind Luftdruck Luftfeuchtigkeit
    00:00 +5°C° 1,1 mm 1 m/S 696 mmHg 95%
    01:00 +4°C° 0 mm 2 m/S 696 mmHg 96%
    02:00 +5°C° 0,9 mm 1 m/S 696 mmHg 96%
    03:00 +5°C° 0,9 mm 1 m/S 696 mmHg 95%
    04:00 +5°C° 0,9 mm 1 m/S 696 mmHg 95%
    05:00 +5°C° 0,4 mm 1 m/S 696 mmHg 95%
    06:00 +5°C° 0,4 mm 1 m/S 696 mmHg 94%
    07:00 +5°C° 0 mm 1 m/S 696 mmHg 95%
    08:00 +6°C° 0,2 mm 1 m/S 697 mmHg 93%
    09:00 +6°C° 0,2 mm 1 m/S 697 mmHg 92%
    10:00 +7°C° 0,2 mm 1 m/S 697 mmHg 90%
    11:00 +7°C° 0,1 mm 1 m/S 697 mmHg 88%
    12:00 +7°C° 0,1 mm 2 m/S 697 mmHg 86%
    13:00 +7°C° 0 mm 2 m/S 697 mmHg 85%
    14:00 +7°C° 0,1 mm 2 m/S 698 mmHg 85%
    15:00 +7°C° 0,1 mm 2 m/S 698 mmHg 85%
    16:00 +7°C° 0,1 mm 2 m/S 698 mmHg 85%
    17:00 +7°C° 0,1 mm 2 m/S 698 mmHg 88%
    18:00 +7°C° 0,1 mm 1 m/S 698 mmHg 91%
    19:00 +6°C° 0,1 mm 1 m/S 698 mmHg 94%
    20:00 +6°C° 0,1 mm 1 m/S 699 mmHg 94%
    21:00 +6°C° 0,1 mm 1 m/S 699 mmHg 95%
    22:00 +6°C° 0,1 mm 1 m/S 699 mmHg 95%
    23:00 +6°C° 0,1 mm 1 m/S 699 mmHg 95%

    Morgen, 23 Februar, Freitag

    Zeit Temperatur Niederschläge Wind Luftdruck Luftfeuchtigkeit
    00:00 +6°C° 0,1 mm 1 m/S 699 mmHg 95%
    01:00 +6°C° 0,1 mm 1 m/S 699 mmHg 96%
    02:00 +6°C° 0,1 mm 1 m/S 699 mmHg 96%
    03:00 +6°C° 0,1 mm 1 m/S 699 mmHg 95%
    04:00 +6°C° 0,1 mm 1 m/S 699 mmHg 95%
    05:00 +6°C° 0,1 mm 1 m/S 699 mmHg 95%
    06:00 +6°C° 0,1 mm 1 m/S 699 mmHg 95%
    07:00 +6°C° 0,1 mm 1 m/S 699 mmHg 95%
    08:00 +6°C° 0,1 mm 1 m/S 699 mmHg 93%
    09:00 +6°C° 0,1 mm 2 m/S 699 mmHg 91%
    10:00 +6°C° 0,1 mm 2 m/S 699 mmHg 89%
    11:00 +7°C° 0,2 mm 2 m/S 699 mmHg 87%
    12:00 +7°C° 0,2 mm 2 m/S 699 mmHg 86%
    13:00 +8°C° 0,2 mm 2 m/S 699 mmHg 84%
    14:00 +7°C° 0,1 mm 2 m/S 699 mmHg 85%
    15:00 +7°C° 0,1 mm 2 m/S 699 mmHg 86%
    16:00 +7°C° 0,1 mm 2 m/S 698 mmHg 87%
    17:00 +7°C° 0,1 mm 2 m/S 698 mmHg 89%
    18:00 +6°C° 0,1 mm 2 m/S 698 mmHg 92%
    19:00 +6°C° 0,1 mm 2 m/S 698 mmHg 94%
    20:00 +6°C° 0,1 mm 2 m/S 699 mmHg 95%
    21:00 +7°C° 0,1 mm 1 m/S 699 mmHg 95%
    22:00 +7°C° 0,1 mm 1 m/S 699 mmHg 95%
    23:00 +5°C° 0,3 mm 2 m/S 699 mmHg 95%

    übermorgen, 24 Februar, Samstag

    Zeit Temperatur Niederschläge Wind Luftdruck Luftfeuchtigkeit
    00:00 +5°C° 0,3 mm 2 m/S 699 mmHg 96%
    01:00 +5°C° 0,3 mm 2 m/S 698 mmHg 96%
    02:00 +5°C° 0,2 mm 2 m/S 698 mmHg 96%
    03:00 +5°C° 0,2 mm 2 m/S 697 mmHg 96%
    04:00 +5°C° 0,2 mm 2 m/S 697 mmHg 96%
    05:00 +5°C° 0,4 mm 2 m/S 697 mmHg 95%
    06:00 +5°C° 0,4 mm 2 m/S 697 mmHg 95%
    07:00 +5°C° 0,4 mm 2 m/S 697 mmHg 95%
    08:00 +5°C° 0,9 mm 2 m/S 697 mmHg 93%
    09:00 +5°C° 0,9 mm 2 m/S 697 mmHg 92%
    10:00 +5°C° 0,9 mm 2 m/S 697 mmHg 90%
    11:00 +5°C° 1,1 mm 2 m/S 697 mmHg 89%
    12:00 +7°C° 1,1 mm 1 m/S 697 mmHg 88%
    13:00 +7°C° 1,1 mm 1 m/S 696 mmHg 87%
    14:00 +7°C° 0,5 mm 1 m/S 696 mmHg 85%
    15:00 +7°C° 0,5 mm 1 m/S 696 mmHg 84%
    16:00 +7°C° 0,5 mm 1 m/S 696 mmHg 83%
    17:00 +7°C° 0,2 mm 1 m/S 696 mmHg 85%
    18:00 +6°C° 0,2 mm 1 m/S 696 mmHg 87%
    19:00 +5°C° 0,2 mm 1 m/S 696 mmHg 89%
    20:00 +5°C° 0,2 mm 1 m/S 697 mmHg 89%
    21:00 +4°C° 0,2 mm 0 m/S 697 mmHg 89%
    22:00 +4°C° 0,2 mm 0 m/S 698 mmHg 90%
    23:00 +4°C° 0,3 mm 0 m/S 698 mmHg 90%

    25 Februar, Sonntag

    Zeit Temperatur Niederschläge Wind Luftdruck Luftfeuchtigkeit
    00:00 +4°C° 0,3 mm 0 m/S 698 mmHg 90%
    01:00 +4°C° 0,3 mm 0 m/S 698 mmHg 91%
    02:00 +5°C° 0,4 mm 1 m/S 698 mmHg 91%
    03:00 +5°C° 0,4 mm 1 m/S 698 mmHg 92%
    04:00 +4°C° 0,4 mm 1 m/S 698 mmHg 92%
    05:00 +4°C° 0,4 mm 1 m/S 698 mmHg 92%
    06:00 +4°C° 0,4 mm 1 m/S 698 mmHg 91%
    07:00 +4°C° 0,4 mm 1 m/S 698 mmHg 91%
    08:00 +3°C° 0,4 mm 2 m/S 698 mmHg 89%
    09:00 +4°C° 0,4 mm 2 m/S 699 mmHg 87%
    10:00 +4°C° 0,4 mm 2 m/S 699 mmHg 85%
    11:00 +5°C° 0,2 mm 2 m/S 699 mmHg 83%
    12:00 +5°C° 0,2 mm 2 m/S 698 mmHg 82%
    13:00 +5°C° 0,2 mm 2 m/S 698 mmHg 81%
    14:00 +4°C° 0,2 mm 3 m/S 698 mmHg 82%
    15:00 +4°C° 0,2 mm 3 m/S 698 mmHg 83%
    16:00 +4°C° 0,2 mm 3 m/S 698 mmHg 84%
    17:00 +3°C° 0,7 mm 3 m/S 698 mmHg 86%
    18:00 +2°C° 0,7 mm 3 m/S 698 mmHg 88%
    19:00 +3°C° 0,7 mm 2 m/S 698 mmHg 89%
    20:00 +2°C° 1 mm 2 m/S 698 mmHg 90%
    21:00 +2°C° 1 mm 2 m/S 698 mmHg 91%
    22:00 +2°C° 1 mm 2 m/S 698 mmHg 92%
    23:00 +2°C° 1,1 mm 2 m/S 697 mmHg 92%

    26 Februar, Montag

    Zeit Temperatur Niederschläge Wind Luftdruck Luftfeuchtigkeit
    00:00 +1°C° 1,1 mm 3 m/S 697 mmHg 93%
    01:00 +1°C° 1,1 mm 3 m/S 696 mmHg 94%
    02:00 +1°C° 1,1 mm 3 m/S 695 mmHg 94%
    03:00 +1°C° 1,1 mm 3 m/S 695 mmHg 94%
    04:00 0°C° 1,1 mm 4 m/S 694 mmHg 94%
    05:00 0°C° 1,1 mm 4 m/S 694 mmHg 94%
    06:00 -1°C° 1,1 mm 4 m/S 693 mmHg 94%
    07:00 -1°C° 1,1 mm 4 m/S 692 mmHg 93%
    08:00 -1°C° 1,6 mm 4 m/S 692 mmHg 93%
    09:00 -1°C° 1,6 mm 4 m/S 692 mmHg 94%
    10:00 -1°C° 1,6 mm 4 m/S 691 mmHg 94%
    11:00 0°C° 2,2 mm 3 m/S 691 mmHg 94%
    12:00 0°C° 2,2 mm 3 m/S 690 mmHg 95%
    13:00 0°C° 2,2 mm 3 m/S 690 mmHg 96%
    14:00 0°C° 0,4 mm 3 m/S 690 mmHg 95%
    15:00 0°C° 0,4 mm 3 m/S 690 mmHg 94%
    16:00 +1°C° 0,4 mm 2 m/S 690 mmHg 93%
    17:00 -1°C° 0,4 mm 2 m/S 690 mmHg 93%
    18:00 -1°C° 0,4 mm 2 m/S 690 mmHg 93%
    19:00 0°C° 0,4 mm 1 m/S 691 mmHg 93%
    20:00 +1°C° 0,5 mm 1 m/S 691 mmHg 93%
    21:00 +1°C° 0,5 mm 1 m/S 692 mmHg 93%
    22:00 +1°C° 0,5 mm 1 m/S 692 mmHg 94%
    23:00 0°C° 0,1 mm 1 m/S 692 mmHg 93%

    27 Februar, Dienstag

    Zeit Temperatur Niederschläge Wind Luftdruck Luftfeuchtigkeit
    00:00 0°C° 0,1 mm 1 m/S 692 mmHg 92%
    01:00 0°C° 0,1 mm 1 m/S 692 mmHg 92%
    02:00 -1°C° 0 mm 1 m/S 692 mmHg 91%
    03:00 -1°C° 0 mm 1 m/S 692 mmHg 90%
    04:00 -1°C° 0 mm 1 m/S 692 mmHg 90%
    05:00 -1°C° 0 mm 1 m/S 692 mmHg 89%
    06:00 0°C° 0 mm 1 m/S 692 mmHg 89%
    07:00 0°C° 0 mm 1 m/S 693 mmHg 88%
    08:00 +1°C° 0 mm 1 m/S 693 mmHg 90%
    09:00 +2°C° 0 mm 2 m/S 694 mmHg 92%
    10:00 +3°C° 0 mm 2 m/S 694 mmHg 94%
    11:00 +3°C° 0 mm 2 m/S 694 mmHg 91%
    12:00 +4°C° 0 mm 2 m/S 694 mmHg 87%
    13:00 +4°C° 0 mm 3 m/S 694 mmHg 84%
    14:00 +4°C° 0 mm 2 m/S 695 mmHg 83%
    15:00 +4°C° 0 mm 2 m/S 695 mmHg 83%
    16:00 +5°C° 0 mm 1 m/S 695 mmHg 82%
    17:00 +4°C° 0 mm 1 m/S 695 mmHg 82%
    18:00 +3°C° 0 mm 1 m/S 696 mmHg 81%
    19:00 +2°C° 0 mm 1 m/S 696 mmHg 81%
    20:00 +1°C° 0 mm 1 m/S 696 mmHg 81%
    21:00 +1°C° 0 mm 1 m/S 696 mmHg 80%
    22:00 +1°C° 0 mm 1 m/S 697 mmHg 80%
    23:00 +1°C° 0 mm 1 m/S 697 mmHg 81%
    Mehr zeigen